Weather History for Cork, Ireland

Change the Weather History Date:

Wednesday, October 27, 2010

  Actual Average Record
Temperature  
Mean Temperature 50 °F -  
Max Temperature 56 °F 51 °F 60 °F (2005)
Min Temperature 44 °F 41 °F 32 °F (2012)
Degree Days  
Heating Degree Days 15    
Moisture  
Dew Point 49 °F    
Average Humidity 96    
Maximum Humidity 100    
Minimum Humidity 77    
Precipitation  
Precipitation 0.24 in 0.15 in - ()
Sea Level Pressure  
Sea Level Pressure 29.88 in    
Wind  
Wind Speed 11 mph ()    
Max Wind Speed 25 mph    
Max Gust Speed 37 mph    
Visibility 6.6 miles    
Events Rain    
Averages and records for this station are not official NWS values.
T = Trace of Precipitation, MM = Missing Value Source: Averaged Metar Reports

Daily Weather History Graph

Daily Weather History Graph

Search for Another Location

Airport:

Trip Planner

Search our weather history database for the weather conditions in past years. The results will help you decide how hot, cold, wet, or windy it might be!

Date:

Astronomy

Oct. 27, 2010 Rise Set
Actual Time 8:19 AM IST 6:15 PM IST
Civil Twilight 7:44 AM IST 6:50 PM IST
Nautical Twilight 7:04 AM IST 7:29 PM IST
Astronomical Twilight 6:25 AM IST 8:08 PM IST
Moon 8:55 PM IST (10/27) 1:11 PM IST (10/27)
Length of Visible Light 11h 06m
Length of Day
9h 56m
Waning Gibbous, 81% of the Moon is Illuminated
Oct 27
Waning Gibbous
Oct 30
Last Quarter
Nov 6
New
Nov 13
First Quarter
Nov 21
Full

Hourly Weather History & Observations

Time (IST) Temp. Windchill Dew Point Humidity Pressure Visibility Wind Dir Wind Speed Gust Speed Precip Events Conditions
12:00 AM 53.6 °F - 53.6 °F 100% 29.86 in 6.2 mi WSW 12.7 mph - N/A   Partly Cloudy
12:30 AM 51.8 °F - 51.8 °F 100% 29.89 in 6.2 mi WSW 9.2 mph - N/A   Partly Cloudy
1:00 AM 51 °F - 51 °F 100% 29.90 in 22 mi WSW 11.2 mph - -   Partly Cloudy
1:00 AM 51.8 °F - 51.8 °F 100% 29.89 in 6.2 mi WSW 10.4 mph - N/A   Partly Cloudy
1:30 AM 51.8 °F - 51.8 °F 100% 29.89 in 6.2 mi SW 11.5 mph - N/A   Partly Cloudy
2:00 AM 50.0 °F - 50.0 °F 100% 29.89 in 6.2 mi SW 10.4 mph - N/A   Partly Cloudy
3:00 AM 50.0 °F - 50.0 °F 100% 29.92 in 6.2 mi WSW 9.2 mph - N/A   Partly Cloudy
3:30 AM 50.0 °F - 50.0 °F 100% 29.92 in 6.2 mi WSW 8.1 mph - N/A   Partly Cloudy
4:00 AM 50.0 °F - 50.0 °F 100% 29.92 in 6.2 mi SW 10.4 mph - N/A   Partly Cloudy
4:30 AM 48.2 °F - 48.2 °F 100% 29.92 in 6.2 mi WSW 8.1 mph - N/A   Partly Cloudy
5:00 AM 46.4 °F 42.4 °F 46.4 °F 100% 29.92 in 6.2 mi SW 8.1 mph - N/A   Unknown
5:30 AM - - 46.4 °F N/A% 29.92 in 6.2 mi SW 9.2 mph - N/A   Partly Cloudy
6:00 AM 46.4 °F 42.4 °F 46.4 °F 100% 29.92 in 6.2 mi SW 8.1 mph - N/A   Partly Cloudy
6:30 AM 46.4 °F 42.4 °F 46.4 °F 100% 29.92 in 6.2 mi WSW 8.1 mph - N/A   Partly Cloudy
7:00 AM 46 °F - 46 °F 99% 29.95 in 22 mi SW 4.5 mph - -   Scattered Clouds
7:00 AM 46.4 °F 44.3 °F 46.4 °F 100% 29.92 in 6.2 mi SW 4.6 mph - N/A   Partly Cloudy
7:30 AM 44.6 °F 40.7 °F 44.6 °F 100% 29.92 in 6.2 mi SW 6.9 mph - N/A   Partly Cloudy
8:00 AM 44.6 °F 40.7 °F 44.6 °F 100% 29.92 in 6.2 mi SSW 6.9 mph - N/A   Partly Cloudy
8:30 AM 46.4 °F 41.5 °F 46.4 °F 100% 29.92 in 6.2 mi SW 10.4 mph - N/A   Partly Cloudy
9:00 AM 48.2 °F - 46.4 °F 93% 29.95 in 6.2 mi SW 10.4 mph - N/A   Partly Cloudy
9:30 AM 48.2 °F - 48.2 °F 100% 29.95 in 6.2 mi SW 8.1 mph - N/A   Scattered Clouds
10:00 AM 50.0 °F - 48.2 °F 94% 29.95 in 6.2 mi SSW 9.2 mph - N/A   Scattered Clouds
10:30 AM 50.0 °F - 48.2 °F 94% 29.95 in 6.2 mi SSW 9.2 mph - N/A   Scattered Clouds
11:00 AM 53.6 °F - 51.8 °F 94% 29.95 in 6.2 mi SSW 11.5 mph - N/A   Scattered Clouds
11:30 AM 55.4 °F - 51.8 °F 88% 29.92 in 6.2 mi SSW 18.4 mph - N/A   Scattered Clouds
12:00 PM 55.4 °F - 48.2 °F 77% 29.92 in 6.2 mi SW 20.7 mph - N/A   Mostly Cloudy
12:30 PM 55.4 °F - 51.8 °F 88% 29.92 in 6.2 mi SW 20.7 mph - N/A   Mostly Cloudy
1:00 PM 55 °F - 51 °F 80% 29.91 in 16 mi SW 20.1 mph - - Rain Light Rain Showers
1:00 PM 55.4 °F - 50.0 °F 82% 29.89 in 6.2 mi SW 20.7 mph - N/A Rain Light Rain Showers
1:30 PM 55.4 °F - 50.0 °F 82% 29.89 in 6.2 mi SW 25.3 mph - N/A Rain Light Rain Showers
2:00 PM 55.4 °F - 51.8 °F 88% 29.86 in 6.2 mi SW 23.0 mph - N/A   Mostly Cloudy
2:30 PM 55.4 °F - 51.8 °F 88% 29.86 in 6.2 mi SSW 24.2 mph 36.8 mph N/A   Mostly Cloudy
3:00 PM 53.6 °F - 50.0 °F 88% 29.86 in 6.2 mi SW 24.2 mph - N/A Rain Light Rain Showers
3:30 PM 53.6 °F - 50.0 °F 88% 29.86 in 6.2 mi SW 18.4 mph - N/A   Mostly Cloudy
4:00 PM 53.6 °F - 51.8 °F 94% 29.86 in 4.3 mi SW 19.6 mph - N/A   Mostly Cloudy
4:30 PM 50.0 °F - 48.2 °F 94% 29.83 in 6.2 mi WSW 20.7 mph 35.7 mph N/A Rain Rain Showers
5:00 PM 48.2 °F - 48.2 °F 100% 29.83 in 6.2 mi SW 15.0 mph - N/A   Mostly Cloudy
5:30 PM 48.2 °F - 48.2 °F 100% 29.83 in 6.2 mi SW 17.3 mph - N/A   Scattered Clouds
6:00 PM 50.0 °F - 48.2 °F 94% 29.83 in 6.2 mi SW 17.3 mph - N/A   Mostly Cloudy
6:30 PM 48.2 °F - 48.2 °F 100% 29.83 in 6.2 mi SW 16.1 mph - N/A   Mostly Cloudy
7:00 PM 49 °F - 49 °F 99% 29.85 in 16 mi SW 15.7 mph - -   Partly Cloudy
7:00 PM 50.0 °F - 48.2 °F 94% 29.83 in 6.2 mi SW 16.1 mph - N/A   Scattered Clouds
7:30 PM 50.0 °F - 50.0 °F 100% 29.83 in 6.2 mi SW 15.0 mph - N/A   Mostly Cloudy
8:00 PM 50.0 °F - 50.0 °F 100% 29.83 in 6.2 mi SW 15.0 mph - N/A   Partly Cloudy
8:30 PM 50.0 °F - 50.0 °F 100% 29.83 in 6.2 mi SW 13.8 mph - N/A   Partly Cloudy
9:00 PM 51.8 °F - 51.8 °F 100% 29.83 in 6.2 mi SW 15.0 mph - N/A Rain Light Rain Showers
9:30 PM 51.8 °F - 50.0 °F 94% 29.83 in 6.2 mi SW 16.1 mph - N/A Rain Light Rain Showers
10:00 PM 50.0 °F - 50.0 °F 100% 29.83 in 6.2 mi WSW 17.3 mph - N/A Rain Light Rain Showers
10:30 PM 48.2 °F - 48.2 °F 100% 29.83 in 6.2 mi WSW 8.1 mph - N/A   Scattered Clouds
11:00 PM 46.4 °F 42.4 °F 46.4 °F 100% 29.83 in 6.2 mi SW 8.1 mph - N/A   Partly Cloudy
11:30 PM 46.4 °F 42.9 °F 46.4 °F 100% 29.83 in 6.2 mi SW 6.9 mph - N/A   Mostly Cloudy